Tracking 20719 objects as of 26-May-2020
HD Live streaming from Space Station
objects crossing your sky now

RADUGA 2

Track RADUGA 2 now!
RADUGA 2 is classified as:


NORAD ID: 9416
Int'l Code: 1976-092A
Perigee: 35,676.4 km
Apogee: 35,898.3 km
Inclination: 9.0 °
Period: 1,435.8 minutes
Semi major axis: 42158 km
RCS: 0.1428 m2 (medium)
Launch date: September 11, 1976
Source: Commonwealth of Independent States (former USSR) (CIS)
Launch site: TYURATAM MISSILE AND SPACE COMPLEX (TTMTR)
aabbcc
Your satellite tracking list
Your tracking list is empty




NASA's NSSDC Master Catalog

Two Line Element Set (TLE):
1  9416U 76092A   20146.52620841 -.00000027 +00000-0 +00000-0 0  9995
2  9416 008.9843 300.5772 0026320 338.9912 221.9976 01.00294465107135
Source of the keplerian elements: AFSPC